TimeEST,TemperatureF,Dew PointF,Humidity,Sea Level PressureIn,VisibilityMPH,Wind Direction,Wind SpeedMPH,Gust SpeedMPH,PrecipitationIn,Events,Conditions,WindDirDegrees,DateUTC
12:15 AM,60.8,59.0,94,30.19,9.0,Calm,Calm,-,N/A,,Overcast,0,2012-11-13 05:15:00
12:22 AM,60.8,59.0,94,30.19,9.0,Calm,Calm,-,N/A,,Overcast,0,2012-11-13 05:22:00
12:30 AM,60.8,59.0,94,30.19,8.0,Calm,Calm,-,N/A,,Overcast,0,2012-11-13 05:30:00
12:43 AM,60.8,59.0,94,30.19,8.0,SSW,3.5,-,N/A,,Overcast,210,2012-11-13 05:43:00
12:50 AM,60.8,59.0,94,30.19,8.0,SW,3.5,-,0.00,Rain,Light Rain,220,2012-11-13 05:50:00
12:53 AM,61.0,59.0,93,30.17,8.0,SW,3.5,-,0.00,,Overcast,220,2012-11-13 05:53:00
1:08 AM,60.8,59.0,94,30.19,5.0,SW,3.5,-,N/A,,Overcast,230,2012-11-13 06:08:00
1:39 AM,53.6,51.8,94,30.19,7.0,North,13.8,-,0.00,Rain,Light Rain,10,2012-11-13 06:39:00
1:53 AM,52.0,48.9,89,30.19,10.0,North,16.1,-,0.00,Rain,Light Rain,10,2012-11-13 06:53:00
2:36 AM,48.2,46.4,93,30.20,10.0,North,16.1,-,0.00,,Overcast,10,2012-11-13 07:36:00
2:53 AM,48.0,45.0,89,30.19,10.0,North,13.8,-,0.00,,Overcast,360,2012-11-13 07:53:00
3:53 AM,48.9,44.1,83,30.19,10.0,NNE,12.7,-,N/A,,Overcast,20,2012-11-13 08:53:00
4:53 AM,48.9,41.0,74,30.21,10.0,North,10.4,-,N/A,,Overcast,10,2012-11-13 09:53:00
5:36 AM,48.2,39.2,71,30.22,10.0,North,11.5,-,N/A,,Overcast,10,2012-11-13 10:36:00
5:43 AM,48.2,39.2,71,30.22,10.0,North,10.4,-,N/A,,Overcast,10,2012-11-13 10:43:00
5:53 AM,48.9,39.9,71,30.22,10.0,North,9.2,-,N/A,,Overcast,10,2012-11-13 10:53:00
6:53 AM,48.9,39.9,71,30.25,10.0,North,4.6,-,N/A,,Overcast,360,2012-11-13 11:53:00
7:53 AM,48.9,39.0,69,30.27,10.0,NNE,8.1,-,N/A,,Overcast,20,2012-11-13 12:53:00
8:53 AM,48.9,37.0,64,30.29,10.0,North,9.2,-,N/A,,Overcast,360,2012-11-13 13:53:00
9:53 AM,51.1,36.0,56,30.31,10.0,North,6.9,-,N/A,,Overcast,10,2012-11-13 14:53:00
10:46 AM,51.8,37.4,58,30.32,10.0,NE,8.1,-,N/A,,Overcast,40,2012-11-13 15:46:00
10:53 AM,53.1,37.9,57,30.32,10.0,NE,8.1,-,N/A,,Overcast,40,2012-11-13 15:53:00
11:53 AM,55.9,34.0,44,30.30,10.0,ENE,6.9,-,N/A,,Overcast,60,2012-11-13 16:53:00
12:53 PM,57.9,32.0,37,30.27,10.0,NNE,9.2,-,N/A,,Scattered Clouds,30,2012-11-13 17:53:00
1:53 PM,61.0,32.0,34,30.27,10.0,NE,6.9,-,N/A,,Clear,40,2012-11-13 18:53:00
2:53 PM,61.0,35.1,38,30.26,10.0,NE,9.2,-,N/A,,Clear,40,2012-11-13 19:53:00
3:53 PM,61.0,28.0,29,30.27,10.0,ENE,11.5,-,N/A,,Clear,60,2012-11-13 20:53:00
4:53 PM,59.0,25.0,27,30.27,10.0,ENE,8.1,-,N/A,,Clear,60,2012-11-13 21:53:00
5:53 PM,54.0,30.9,41,30.29,10.0,NE,5.8,-,N/A,,Clear,50,2012-11-13 22:53:00
6:53 PM,50.0,34.0,54,30.32,10.0,North,6.9,-,N/A,,Clear,10,2012-11-13 23:53:00
7:53 PM,48.9,34.0,56,30.35,10.0,NE,8.1,-,N/A,,Clear,50,2012-11-14 00:53:00
8:53 PM,46.0,33.1,61,30.37,10.0,NNE,6.9,-,N/A,,Clear,20,2012-11-14 01:53:00
9:53 PM,46.0,32.0,58,30.38,10.0,NNE,9.2,-,N/A,,Clear,30,2012-11-14 02:53:00
10:53 PM,46.0,28.9,51,30.38,10.0,NE,10.4,-,N/A,,Clear,50,2012-11-14 03:53:00
11:53 PM,45.0,28.0,52,30.38,10.0,NE,9.2,-,N/A,,Clear,50,2012-11-14 04:53:00